Погода в Адлере

Россия / Краснодарский край     43°26′36″N   39°54′37″E
темп.,
°C
ветер,
м/с
пор.,
м/с
влажн.,
%
обл.,
%
осадки,
мм/ч
давл.,
гПа
погр.,
м
22 апреля, чт
чт2200:00+10св1187100 0.0 102014
03:00+9с1186100 0.0 102024
06:00+10ссв118498 0.0 102021
09:00+13ююз237486 0.1 1021399
12:00+14зюз2269100 0.1 1022686
15:00+12з2268100 0.1 1023559
18:00+12ссз1173100 0.0 1022189
21:00+8юв12915 0.1 102536
23 апреля, пт
пт2300:00+8в11890 0.0 102523
03:00+7всв21840 0.0 102622
06:00+7всв22740 0.0 102633
09:00+12юз22690 0.0 1025568
12:00+14юз32662 0.0 1025824
15:00+15юз225976 0.0 1022642
18:00+13ссз1176100 0.0 102150
21:00+11св217899 0.0 102116
24 апреля, сб
сб2400:00+11всв2261100 0.0 102030
03:00+12св3349100 0.0 102046
06:00+11св2252100 0.0 101935
09:00+17с1240100 0.0 1020540
12:00+19з2430100 0.0 10191783
15:00+17з334220 0.0 1020969
18:00+14зсз1267100 0.0 101954
21:00+13св2264100 0.0 102124
25 апреля, вс
вс2500:00+13ссв225598 0.0 101940
03:00+12в2257100 0.0 101941
06:00+12св116898 0.0 101831
09:00+14зюз1166100 0.1 1016242
12:00+15з3265100 0.0 1014462
15:00+17з2258100 0.0 1013502
18:00+14зюз2282100 0.0 1014104
21:00+11вюв1293100 1.9 101739
26 апреля, пн
пн2600:00+10вюв2398100 2.1 1017236
03:00+10ююв1298100 3.1 1016197
06:00+10зсз1199100 1.1 1016141
09:00+11з2295100 2.3 1015156
12:00+10ссз1197100 7.6 101598
15:00+11сз1296100 12.4 101593
18:00+10зсз2297100 1.3 1015130
21:00+10зсз1197100 1.4 1017109